This is the latest recevied weather packets stored in our database for station/object AI5ON. If no packets are shown the sender has not sent any weather packets the latest 10 day(s).
| Time | Temp. | Humidity | Pressure | Rain* | Wind** | Luminosity | Snow |
|---|---|---|---|---|---|---|---|
| 1787962940 | 30.56° C | 67% | 1014.2 hPa | 0 mm | - | 15 W/m² | - |
| 1787962639 | 30.56° C | 69% | 1014.3 hPa | 0 mm | - | 20 W/m² | - |
| 1787962334 | 31.11° C | 67% | 1014.2 hPa | 0 mm | - | 27 W/m² | - |
| 1787962029 | 31.11° C | 66% | 1014 hPa | 0 mm | - | 40 W/m² | - |
| 1787961723 | 31.11° C | 65% | 1014.1 hPa | 0 mm | - | 52 W/m² | - |
| 1787961422 | 31.11° C | 64% | 1014 hPa | 0 mm | - | 54 W/m² | - |
| 1787961121 | 31.67° C | 63% | 1013.9 hPa | 0 mm | - | 55 W/m² | - |
| 1787960820 | 31.67° C | 62% | 1014.1 hPa | 0 mm | - | 55 W/m² | - |
| 1787960516 | 31.67° C | 63% | 1014 hPa | 0 mm | - | 53 W/m² | - |
| 1787960215 | 32.22° C | 61% | 1014.1 hPa | 0 mm | - | 51 W/m² | - |
| 1787959909 | 32.22° C | 59% | 1014 hPa | 0 mm | - | 48 W/m² | - |
| 1787959605 | 32.78° C | 58% | 1013.8 hPa | 0 mm | - | 47 W/m² | - |
| 1787959299 | 33.33° C | 58% | 1013.8 hPa | 0 mm | - | 49 W/m² | - |
| 1787958998 | 33.89° C | 52% | 1013.9 hPa | 0 mm | - | 59 W/m² | - |
| 1787958694 | 34.44° C | 52% | 1013.9 hPa | 0 mm | - | 93 W/m² | - |
| 1787958390 | 35° C | 50% | 1014 hPa | 0 mm | - | 208 W/m² | - |
| 1787958086 | 34.44° C | 53% | 1014.1 hPa | 0 mm | - | 251 W/m² | - |
| 1787957784 | 34.44° C | 51% | 1014.1 hPa | 0 mm | - | 275 W/m² | - |
| 1787957485 | 34.44° C | 50% | 1014 hPa | 0 mm | - | 300 W/m² | - |
| 1787957184 | 33.89° C | 51% | 1014.1 hPa | 0 mm | - | 327 W/m² | - |
| 1787956880 | 34.44° C | 50% | 1014.2 hPa | 0 mm | - | 159 W/m² | - |
| 1787956579 | 35° C | 51% | 1013.8 hPa | 0 mm | - | 221 W/m² | - |
| 1787956274 | 35° C | 48% | 1013.9 hPa | 0 mm | - | 377 W/m² | - |
| 1787955969 | 35° C | 49% | 1014.2 hPa | 0 mm | - | 405 W/m² | - |
| 1787955665 | 35° C | 49% | 1014.2 hPa | 0 mm | - | 424 W/m² | - |
* Rain latest hour (hover to see other rain measurements)
** Current wind speed in m/s (hover to see current wind gust speed)